Regional Weather Roundup
Issued by NWS

Home | Current Version | Previous Version | Graphics & Text | Print | Product List | Glossary On
Versions: 1 2 3 4 5 6 7 8 9 10 11 12 13 14 15 16 17 18 19 20 21 22 23 24 25 26 27 28 29 30 31 32 33 34 35 36 37 38 39 40 41 42 43 44 45 46 47 48 49 50
000
ASUS43 KLOT 250609
RWRIL

ILLINOIS REGIONAL WEATHER ROUNDUP
NATIONAL WEATHER SERVICE CHICAGO/ROMEOVILLE IL
100 AM CDT THU MAY 25 2017

NOTE: "FAIR" INDICATES FEW OR NO CLOUDS BELOW 12,000 FEET WITH NO
SIGNIFICANT WEATHER AND/OR OBSTRUCTIONS TO VISIBILITY.

* THESE STATIONS ARE NOT UNDER NWS QUALITY CONTROL. THEY ALSO MAY NOT
  REPORT WEATHER SUCH AS PRECIPITATION OR FOG.

ILZ001-002-007-009-015-016-024-250700-
NORTHWEST ILLINOIS

CITY           SKY/WX    TMP DP  RH WIND       PRES   REMARKS
MOLINE         CLOUDY    56  50  80 N10       29.63F
6HR MIN TEMP:  56; 6HR MAX TEMP:  62;

STERLING*      CLOUDY    55  51  86 N13G18    29.63S
SAVANNA*       CLOUDY    56  49  80 N12G17    29.64F
$$

ILZ003-004-008-010-011-017-018-250700-
NORTH CENTRAL ILLINOIS

CITY           SKY/WX    TMP DP  RH WIND       PRES   REMARKS
ROCKFORD       CLOUDY    55  51  86 N12       29.63S
6HR MIN TEMP:  53; 6HR MAX TEMP:  59;

FREEPORT*      CLOUDY    53  50  90 N10G16    29.65F
ROCHELLE*      MOCLDY    52  50  94 N12       29.61S
DE KALB*       CLOUDY    53  51  93 N13       29.60R
PERU*          CLOUDY    53  50  89 N16       29.60R
$$

ILZ005-006-012>014-019>023-250700-
NORTHEAST ILLINOIS

CITY           SKY/WX    TMP DP  RH WIND       PRES   REMARKS
CHICAGO-OHARE  CLOUDY    55  50  83 N12       29.55F
6HR MIN TEMP:  54; 6HR MAX TEMP:  60; 6HR PCP: TRACE;

CHICAGO-MIDWAY CLOUDY    54  50  86 N14       29.54F
6HR MIN TEMP:  52; 6HR MAX TEMP:  55;

AURORA         CLOUDY    57  52  83 N9        29.57F
6HR MIN TEMP:  57; 6HR MAX TEMP:  61; 6HR PCP: TRACE;

LANSING*       CLOUDY    52  51  98 N7        29.54S
JOLIET*        PTCLDY    55  53  91 N6        29.55F
WAUKEGAN       CLOUDY    53  50  89 N8        29.57S
6HR MIN TEMP:  52; 6HR MAX TEMP:  58;

DUPAGE AIRPORT CLOUDY    55  52  89 N9        29.56S
6HR MIN TEMP:  54; 6HR MAX TEMP:  61; 6HR PCP: TRACE;

KANKAKEE*      CLOUDY    53  52  97 N9        29.54S
WHEELING       CLOUDY    54  52  93 N10       29.57F
6HR MIN TEMP:  53; 6HR MAX TEMP:  59; 6HR PCP: TRACE;

MORRIS*        CLOUDY    55  51  86 CALM      29.55S
ROMEOVILLE*    MOCLDY    54  53  95 N8        29.55F
NORTHERLY ISL    N/A     53  49  86 N13         N/A
$$

LMZ740>746-250700-
SOUTHERN LAKE MICHIGAN

STATION/POSITION SKY/WX   TEMP    WIND        PRES    VSBY  WAVE
                          AIR SEA DIR/SP/G                  HT/PER
                          (F)     (DEG/KT/KT) (MB)    (MI)  (FT/S)
SOUTHERN BUOY              46 45  360/ 12/ 14 1000.8          3/ 6
WILMETTE HARBOR            49 52                N/A           6/ 6
HARRISON CRIB              51     340/ 25/ 27   N/A
BURNHAM HARBOR             53     340/  9/ 12   N/A
CALUMET HARBOR             52     320/  9/ 16 1000.1F
BURNS HARBOR               49     340/ 17/ 21 1000.3S
MICHIGAN CITY              50     340/ 20/ 22   N/A
MICHIGAN CITY 6N           50 53  350/ 16/ 21   N/A           5/ 6
ST. JOSEPH                 55 56   20/ 16/ 19  999.3          5/ 5
$$

ILZ025>027-034>036-040-047-049-050-058-095>099-250700-
WEST-CENTRAL ILLINOIS

CITY           SKY/WX    TMP DP  RH WIND       PRES   REMARKS
QUINCY         CLEAR     53  51  93 NW7       29.64S
GALESBURG*     CLOUDY    54  51  90 NW8       29.63F
MACOMB*        CLEAR     52  51  95 NW9       29.65S
JACKSONVILLE*  PTCLDY    54  53  94 NW7       29.61F
PITTSFIELD*    CLEAR     55  53  92 NW6       29.64S
$$

ILZ028>032-037-038-041>044-048-051>054-059>061-250700-
CENTRAL ILLINOIS

CITY           SKY/WX    TMP DP  RH WIND       PRES   REMARKS
PONTIAC        MOCLDY    55  55  98 NW12      29.57S FOG
BLOOMINGTON    MOCLDY    55  52  89 N17       29.57S
DECATUR        CLOUDY    58  54  86 NW9       29.56R
PEORIA         CLEAR     54  52  93 NW7       29.60S
6HR MIN TEMP:  54; 6HR MAX TEMP:  60;

LACON*         CLEAR     55  53  91 N9        29.59R
LINCOLN*       CLOUDY    57  55  93 NW6       29.58S
SPRINGFIELD    CLOUDY    58  54  86 NW12      29.60R
6HR MIN TEMP:  58; 6HR MAX TEMP:  63;

TAYLORVILLE    CLOUDY    57  54  90 NW12      29.58R
6HR MIN TEMP:  57; 6HR MAX TEMP:  59;

$$

ILZ033-039-045-046-055>057-062-063-250700-
EAST-CENTRAL ILLINOIS

CITY           SKY/WX    TMP DP  RH WIND       PRES   REMARKS
CHAMPAIGN      CLOUDY    58  53  84 N17       29.53S
RANTOUL*       CLOUDY    58  56  90 N12G17    29.53R
MATTOON        CLOUDY    58  56  93 NW14      29.53R
PARIS*         CLOUDY    56  54  92 NW12G23   29.52S
$$

ILZ079-100>102-250700-
SOUTHWEST ILLINOIS

CITY           SKY/WX    TMP DP  RH WIND       PRES   REMARKS
ALTON          CLEAR     54  51  91 W8        29.62S
BELLEVILLE     CLEAR     55  52  88 NW6       29.62R
CAHOKIA*       CLEAR     58  51  78 NW8       29.62S
SPARTA*        CLEAR     56  51  84 NW5       29.62S
$$

ILZ064>066-069>071-074>076-080>082-084>086-088>090-092>094-250700-
SOUTH-CENTRAL ILLINOIS

CITY           SKY/WX    TMP DP  RH WIND       PRES   REMARKS
CARBONDALE     MOCLDY    58  51  78 NW9       29.60R
6HR MIN TEMP:  57; 6HR MAX TEMP:  65;

CAIRO*         MOCLDY    58  51  78 W8        29.62R
EFFINGHAM*     CLOUDY    59  57  96 W10       29.57S
MARION         CLOUDY    59  52  77 CALM      29.60R
MT. VERNON       N/A     57  55  93 VRB5      29.57S
SALEM*         CLOUDY    59  55  85 NW8       29.57S
METROPOLIS*    CLOUDY    59  53  80 W3        29.60S
$$

ILZ067-068-072-073-078-083-087-091-250700-
SOUTHEAST ILLINOIS

CITY           SKY/WX    TMP DP  RH WIND       PRES   REMARKS
LAWRENCEVILLE  CLOUDY    58  57  97 NW9       29.52S FOG
FLORA*         CLOUDY    60  56  88 NW13      29.55S
FAIRFIELD*     CLOUDY    58  57  97 CALM      29.55R
HARRISBURG*    CLOUDY    58  55  88 W8        29.57S
ROBINSON*      CLOUDY    57  55  94 NW8       29.52S
CARMI*         CLOUDY    57  56  96 W8        29.55S
$$

ABBREVIATIONS USED IN REMARKS
   TC - TEMPERATURE IN CELSIUS
  WCI - WIND CHILL INDEX
   HX - HEAT INDEX
  VSB - VISIBILITY
$$





USA.gov is the U.S. government's official web portal to all federal, state and local government web resources and services.